Location: George Washington National Forest Helicopter Landing Site
(38.6463°N, 79.0851°W)
Time: 14:40:56
(UTC-04:00)

Tiros 1 despin weight - Pass Details

Date: 20 August 2019
Orbit: 594 x 643 km, 48.2° (Epoch: 15 October)

Event Time Altitude Azimuth Distance (km) Brightness Sun altitude
Rises 07:20:26 0° 302° (WNW) 2,896 ? 7.9°
Reaches altitude 10° 07:22:44 10° 302° (WNW) 1,996 ? 8.3°
Maximum altitude 07:27:20 88° 221° (SW) 635 ? 9.2°
Drops below altitude 10° 07:32:00 10° 125° (SE) 2,014 ? 10.1°
Sets 07:34:20 0° 125° (SE) 2,925 ? 10.5°
